FENGYUN 1C DEB

Satellite information

Favourite Embed

Satellite Type and Status

DEBRISIN ORBIT

Key statistics

Satellite FENGYUN 1C DEB at a glance.

Uptime

9715

Days in orbit

Revolutions

≈ 14.4

Per day

Orbit

SSO

Sun Synchronous Orbit

Inclination

98.9

Latest

Satellite identification and parameters

Extended collection of information and parameters for FENGYUN 1C DEB.

Object identification

Identified? True

Debris? True

Object name: FENGYUN 1C DEB

International designator: 1999-025FP

Object number (NORAD): 29869

Object ID (CCSDS): 29869

Country: PEOPLES REPUBLIC OF CHINA (PRC)

Current information (Y/N): Y

RCS size: SMALL

Orbital parameters

Period: 100.217 minutes

Inclination: 98.8727 deg

SMA: 7146.936 km

Apoapsis: 831.385 km

Periapsis: 706.218 km

RAAN: 277.8971 deg

Eccentricy: 0.00875668

Argument of periapsis: 8.6111 deg

Mean anomaly: 175.1027 deg

Mean motion: 14.36887878 rev/day

Mean motion (dot): 0.00001849 rev/day2

B* drag term: 0.00061385641 1/REarth

Two-line elements (TLE)

Creation date: Dec. 14, 2025, 3:07 a.m.

Reference frame: TEME

Reference center: EARTH

Epoch: Dec. 13, 2025, 1:50 p.m. UTC

TLE line 0: 0 FENGYUN 1C DEB

TLE line 1: 1 29869U 99025FP 25347.57666311 .00001849 00000-0 61386-3 0 9994

TLE line 2: 2 29869 98.8727 277.8971 0087567 8.6111 175.1027 14.36887878988321

Live tracking on map

Real-time ground track for satellite FENGYUN 1C DEB.

In-orbit conjunctions

A list of the most updated potential collisions computed for object FENGYUN 1C DEB.

Target Orbit TCA Probability of collision Miss distance Type
COSMOS 1867 COOLANT LEO 2025-06-20 01:36:20 0.0005534175 138.0 (m) DEBRIS
FENGYUN 1C DEB SSO 2025-04-24 03:35:41 0.0001403106 400.0 (m) DEBRIS
FENGYUN 1C DEB SSO 2024-11-06 02:05:45 0.0001057392 221.0 (m) DEBRIS
CZ-2C DEB SSO 2024-09-19 14:31:59 0.0001160142 344.0 (m) DEBRIS

Associated space launch

Chinese polar orbiting meteorological satellite

FENGYUN 1C DEB was lifted into orbit during the mission ‘Long March 4B | Feng Yun 1C’, on board a Long March 4B space rocket.

The launch took place on May 10, 1999, 1:33 a.m. from Launch Complex 7.

For more information about the launch, click the button.

Launch to space Long March 4B | Feng Yun 1C
Long March 4B | Feng Yun 1C

Agency: N/A

Status: Launch Successful

Launch date: May 10, 1999, 1:33 a.m. UTC

Rocket: Long March 4B

Launch pad: Launch Complex 7

Location: Taiyuan Satellite Launch Center, People's Republic of China

...

Latest news about this satellite

There are no fresh news available about this satellite. Check back as we update our databases every day.


Newsletter sign-up

Weekly statistics, charts and insights to help you stay on top of the space industry.